�������l�o���
Date,Time,MP-1(��Sv/h),MP-2(��Sv/h),MP-3(��Sv/h),MP-4(��Sv/h),MP-5(��Sv/h),MP-6(��Sv/h),MP-7(��Sv/h),MP-8(��Sv/h),����,����(m/s),���J
2019/05/19,00:00,0.763,1.117,0.767,1.392,1.036,0.441,0.767,0.724,��쐼,6.2,��
2019/05/19,00:10,0.765,1.117,0.767,1.394,1.037,0.439,0.766,0.724,��,6.0,��
2019/05/19,00:20,0.765,1.117,0.768,1.393,1.038,0.440,0.768,0.726,��쐼,5.9,��
2019/05/19,00:30,0.767,1.118,0.767,1.393,1.038,0.438,0.767,0.726,��,7.7,��
2019/05/19,00:40,0.766,1.118,0.767,1.394,1.039,0.440,0.769,0.725,��,7.2,��
2019/05/19,00:50,0.766,1.116,0.768,1.392,1.038,0.440,0.768,0.725,��,7.4,��
2019/05/19,01:00,0.767,1.117,0.766,1.394,1.038,0.440,0.767,0.727,��,7.4,��
2019/05/19,01:10,0.766,1.118,0.765,1.393,1.038,0.441,0.766,0.726,��,7.0,��
2019/05/19,01:20,0.766,1.118,0.766,1.394,1.039,0.440,0.766,0.726,��,6.4,��
2019/05/19,01:30,0.767,1.116,0.765,1.391,1.037,0.439,0.766,0.728,��,6.1,��
2019/05/19,01:40,0.766,1.118,0.767,1.394,1.037,0.439,0.767,0.726,��,4.5,��
2019/05/19,01:50,0.765,1.118,0.767,1.391,1.037,0.438,0.767,0.725,��쐼,4.3,��
2019/05/19,02:00,0.765,1.118,0.766,1.391,1.037,0.440,0.767,0.724,��쐼,2.8,��
2019/05/19,02:10,0.767,1.117,0.764,1.394,1.039,0.440,0.767,0.726,��쐼,3.2,��
2019/05/19,02:20,0.768,1.116,0.766,1.392,1.040,0.441,0.767,0.727,��,2.9,��
2019/05/19,02:30,0.767,1.117,0.766,1.394,1.037,0.440,0.767,0.724,��쐼,3.7,��
2019/05/19,02:40,0.767,1.117,0.764,1.392,1.038,0.441,0.766,0.725,��쐼,4.3,��
2019/05/19,02:50,0.764,1.118,0.764,1.391,1.037,0.440,0.768,0.726,��쐼,4.6,��
2019/05/19,03:00,0.765,1.120,0.766,1.392,1.036,0.439,0.767,0.726,��,5.9,��
2019/05/19,03:10,0.767,1.117,0.766,1.391,1.039,0.440,0.768,0.725,��,5.6,��
2019/05/19,03:20,0.767,1.116,0.765,1.392,1.037,0.439,0.768,0.726,��쐼,5.4,��
2019/05/19,03:30,0.767,1.115,0.765,1.392,1.038,0.439,0.767,0.725,��쐼,5.6,��
2019/05/19,03:40,0.767,1.116,0.764,1.393,1.036,0.439,0.767,0.724,��,6.7,��
2019/05/19,03:50,0.768,1.118,0.765,1.394,1.039,0.439,0.767,0.725,��,7.8,��
2019/05/19,04:00,0.767,1.117,0.765,1.390,1.035,0.441,0.768,0.725,��,8.0,��
2019/05/19,04:10,0.767,1.116,0.767,1.393,1.037,0.440,0.767,0.725,��,8.8,��
2019/05/19,04:20,0.766,1.119,0.765,1.394,1.035,0.439,0.769,0.726,��,8.3,��
2019/05/19,04:30,0.767,1.116,0.767,1.393,1.036,0.440,0.768,0.727,��,10.0,��
2019/05/19,04:40,0.765,1.117,0.766,1.393,1.037,0.438,0.767,0.727,��,9.9,��
2019/05/19,04:50,0.765,1.116,0.767,1.392,1.040,0.437,0.769,0.726,��쐼,9.0,��
2019/05/19,05:00,0.767,1.116,0.767,1.392,1.038,0.438,0.768,0.724,��,7.8,��
2019/05/19,05:10,0.766,1.118,0.765,1.390,1.038,0.440,0.767,0.725,��,7.3,��
2019/05/19,05:20,0.765,1.118,0.768,1.393,1.036,0.438,0.769,0.725,��,6.8,��
2019/05/19,05:30,0.762,1.116,0.767,1.393,1.036,0.439,0.768,0.727,��,7.9,��
2019/05/19,05:40,0.766,1.116,0.766,1.393,1.035,0.438,0.769,0.726,��,7.7,��
2019/05/19,05:50,0.765,1.119,0.767,1.394,1.036,0.438,0.768,0.726,��쐼,8.1,��
2019/05/19,06:00,0.764,1.116,0.766,1.394,1.037,0.440,0.768,0.726,��,7.4,��
2019/05/19,06:10,0.765,1.115,0.768,1.393,1.037,0.440,0.768,0.726,��,7.4,��
2019/05/19,06:20,0.763,1.118,0.766,1.392,1.037,0.439,0.768,0.727,��쐼,6.9,��
2019/05/19,06:30,0.764,1.117,0.766,1.393,1.035,0.438,0.767,0.725,��,6.5,��
2019/05/19,06:40,0.765,1.116,0.767,1.395,1.039,0.438,0.768,0.727,��,6.6,��
2019/05/19,06:50,0.766,1.118,0.767,1.394,1.039,0.439,0.768,0.728,��,8.3,��
2019/05/19,07:00,0.765,1.119,0.769,1.395,1.037,0.438,0.767,0.727,��,7.4,��
2019/05/19,07:10,0.766,1.118,0.768,1.394,1.037,0.437,0.766,0.727,��,7.3,��
2019/05/19,07:20,0.765,1.119,0.769,1.394,1.039,0.438,0.768,0.726,��,7.8,��
2019/05/19,07:30,0.765,1.118,0.767,1.393,1.038,0.438,0.766,0.725,��,8.9,��
2019/05/19,07:40,0.765,1.116,0.767,1.393,1.038,0.439,0.767,0.726,��,6.7,��
2019/05/19,07:50,0.767,1.114,0.767,1.393,1.039,0.438,0.764,0.725,��,8.9,��
2019/05/19,08:00,0.765,1.115,0.767,1.396,1.037,0.438,0.766,0.725,��,7.3,��
2019/05/19,08:10,0.767,1.117,0.766,1.396,1.036,0.437,0.767,0.725,��쓌,8.2,��
2019/05/19,08:20,0.765,1.117,0.766,1.394,1.038,0.438,0.766,0.725,��,8.5,��
2019/05/19,08:30,0.765,1.116,0.767,1.395,1.039,0.439,0.766,0.725,��쓌,9.9,��
2019/05/19,08:40,0.765,1.118,0.768,1.394,1.036,0.438,0.768,0.723,��쓌,9.7,��
2019/05/19,08:50,0.766,1.116,0.765,1.396,1.035,0.438,0.768,0.724,��,10.2,��
2019/05/19,09:00,0.764,1.117,0.763,1.396,1.035,0.439,0.767,0.724,��쓌,12.7,��
2019/05/19,09:10,0.765,1.116,0.764,1.397,1.037,0.440,0.768,0.724,��,11.4,��
2019/05/19,09:20,0.767,1.120,0.765,1.399,1.037,0.438,0.768,0.724,��쓌,11.6,��
2019/05/19,09:30,0.766,1.119,0.765,1.396,1.037,0.438,0.767,0.725,��,11.0,��
2019/05/19,09:40,0.766,1.118,0.765,1.397,1.038,0.438,0.769,0.723,��쓌,10.7,��
2019/05/19,09:50,0.767,1.115,0.765,1.395,1.036,0.439,0.768,0.723,��,11.1,��
2019/05/19,10:00,0.762,1.119,0.766,1.395,1.039,0.440,0.768,0.725,��쓌,11.4,��
2019/05/19,10:10,0.767,1.118,0.765,1.396,1.038,0.439,0.766,0.724,��,11.0,��
2019/05/19,10:20,0.766,1.119,0.766,1.395,1.038,0.439,0.768,0.724,��,10.6,��
2019/05/19,10:30,0.766,1.118,0.765,1.396,1.041,0.439,0.768,0.725,��쓌,11.6,��
2019/05/19,10:40,0.768,1.119,0.767,1.394,1.038,0.439,0.767,0.723,��,11.9,��
2019/05/19,10:50,0.767,1.119,0.766,1.396,1.039,0.440,0.768,0.723,��쓌,12.4,��
2019/05/19,11:00,0.767,1.118,0.768,1.397,1.041,0.439,0.768,0.726,��쓌,12.4,�L
2019/05/19,11:10,0.766,1.121,0.769,1.396,1.040,0.439,0.768,0.726,��쓌,13.3,��
2019/05/19,11:20,0.766,1.121,0.768,1.394,1.041,0.440,0.768,0.725,��쓌,13.1,��
2019/05/19,11:30,0.767,1.121,0.767,1.395,1.040,0.440,0.768,0.725,��,10.7,��
2019/05/19,11:40,0.765,1.118,0.768,1.396,1.041,0.438,0.768,0.725,��쓌,12.7,��
2019/05/19,11:50,0.768,1.122,0.769,1.396,1.041,0.440,0.768,0.724,��쓌,14.2,��
2019/05/19,12:00,0.769,1.122,0.771,1.397,1.041,0.440,0.769,0.724,��쓌,13.5,��
2019/05/19,12:10,0.768,1.122,0.767,1.398,1.043,0.440,0.770,0.724,��쓌,13.6,��
2019/05/19,12:20,0.767,1.122,0.768,1.397,1.041,0.440,0.768,0.725,��쓌,12.1,��
2019/05/19,12:30,0.768,1.122,0.769,1.395,1.042,0.441,0.769,0.725,��쓌,11.0,��
2019/05/19,12:40,0.767,1.120,0.769,1.397,1.043,0.439,0.769,0.724,��쓌,12.4,��
2019/05/19,12:50,0.768,1.123,0.768,1.396,1.044,0.441,0.769,0.724,��쓌,12.7,��
2019/05/19,13:00,0.769,1.123,0.770,1.396,1.042,0.441,0.767,0.726,��쓌,11.1,��
2019/05/19,13:10,0.770,1.124,0.769,1.398,1.043,0.440,0.766,0.728,��쓌,12.2,��
2019/05/19,13:20,0.769,1.123,0.768,1.397,1.046,0.441,0.769,0.724,��,11.6,��
2019/05/19,13:30,0.767,1.125,0.770,1.399,1.044,0.440,0.769,0.727,��쓌,12.1,��
2019/05/19,13:40,0.768,1.123,0.770,1.399,1.043,0.441,0.769,0.724,��쓌,13.8,��
2019/05/19,13:50,0.769,1.124,0.770,1.398,1.044,0.440,0.769,0.725,��쓌,13.8,��
2019/05/19,14:00,0.770,1.125,0.770,1.398,1.043,0.440,0.768,0.724,��,12.1,��
2019/05/19,14:10,0.767,1.123,0.770,1.400,1.045,0.441,0.770,0.726,��쓌,13.9,��
2019/05/19,14:20,0.769,1.126,0.770,1.401,1.045,0.439,0.769,0.726,��쓌,13.8,��
2019/05/19,14:30,0.769,1.124,0.768,1.399,1.044,0.441,0.769,0.725,��쓌,14.4,��
2019/05/19,14:40,0.768,1.124,0.771,1.401,1.044,0.441,0.770,0.724,��,12.7,��
2019/05/19,14:50,0.768,1.124,0.767,1.400,1.044,0.440,0.771,0.725,��쓌,14.4,��
2019/05/19,15:00,0.770,1.124,0.770,1.400,1.044,0.440,0.770,0.726,��쓌,12.8,��
2019/05/19,15:10,0.766,1.124,0.770,1.400,1.045,0.439,0.769,0.727,��쓌,12.4,��
2019/05/19,15:20,0.769,1.125,0.771,1.400,1.048,0.441,0.769,0.726,��,12.1,��
2019/05/19,15:30,0.768,1.124,0.771,1.399,1.045,0.439,0.768,0.725,��쓌,11.4,��
2019/05/19,15:40,0.770,1.124,0.770,1.401,1.044,0.440,0.771,0.726,��쓌,12.2,��
2019/05/19,15:50,0.769,1.125,0.770,1.401,1.043,0.440,0.770,0.725,��,10.4,��
2019/05/19,16:00,0.771,1.122,0.769,1.404,1.046,0.440,0.769,0.725,��쓌,12.1,��
2019/05/19,16:10,0.769,1.124,0.768,1.400,1.045,0.440,0.768,0.724,��,10.5,��
2019/05/19,16:20,0.770,1.124,0.770,1.400,1.043,0.440,0.769,0.725,��,9.9,��
2019/05/19,16:30,0.768,1.123,0.770,1.401,1.046,0.438,0.769,0.726,��쓌,11.4,��
2019/05/19,16:40,0.769,1.125,0.770,1.397,1.044,0.439,0.767,0.724,��쓌,13.8,��
2019/05/19,16:50,0.769,1.125,0.770,1.403,1.045,0.440,0.768,0.725,��쓌,10.3,��
2019/05/19,17:00,0.769,1.124,0.768,1.401,1.044,0.440,0.768,0.726,��쓌,12.0,��
2019/05/19,17:10,0.771,1.124,0.772,1.401,1.045,0.440,0.768,0.725,��쓌,12.1,��
2019/05/19,17:20,0.768,1.124,0.770,1.403,1.046,0.440,0.768,0.726,��,13.8,��
2019/05/19,17:30,0.769,1.124,0.769,1.402,1.047,0.441,0.767,0.725,��쓌,12.7,��
2019/05/19,17:40,0.769,1.124,0.770,1.402,1.042,0.440,0.769,0.726,��,10.8,��
2019/05/19,17:50,0.767,1.125,0.768,1.402,1.044,0.440,0.769,0.727,��쓌,12.2,��
2019/05/19,18:00,0.768,1.124,0.770,1.404,1.046,0.440,0.769,0.728,��쓌,11.6,��
2019/05/19,18:10,0.767,1.124,0.769,1.404,1.043,0.439,0.768,0.726,��,10.6,��
2019/05/19,18:20,0.767,1.125,0.768,1.404,1.044,0.439,0.768,0.726,��,10.5,��
2019/05/19,18:30,0.767,1.124,0.767,1.404,1.043,0.439,0.768,0.729,��,10.0,��
2019/05/19,18:40,0.768,1.123,0.768,1.403,1.044,0.440,0.768,0.727,��,9.7,��
2019/05/19,18:50,0.771,1.126,0.769,1.406,1.044,0.439,0.765,0.727,��,10.3,��
2019/05/19,19:00,0.769,1.126,0.770,1.404,1.043,0.441,0.767,0.728,��,10.2,��
2019/05/19,19:10,0.768,1.125,0.769,1.406,1.043,0.442,0.768,0.726,��,11.1,��
2019/05/19,19:20,0.771,1.124,0.774,1.407,1.045,0.441,0.770,0.727,��,11.1,��
2019/05/19,19:30,0.770,1.128,0.773,1.406,1.044,0.441,0.770,0.728,��,10.7,��
2019/05/19,19:40,0.771,1.127,0.772,1.403,1.043,0.441,0.770,0.727,��,9.8,��
2019/05/19,19:50,0.770,1.126,0.771,1.406,1.043,0.443,0.769,0.727,��,9.5,��
2019/05/19,20:00,0.772,1.127,0.770,1.405,1.042,0.442,0.770,0.728,��,10.0,��
2019/05/19,20:10,0.773,1.126,0.773,1.403,1.044,0.440,0.773,0.727,��,8.7,��
2019/05/19,20:20,0.770,1.127,0.771,1.403,1.044,0.441,0.772,0.728,��,10.3,��
2019/05/19,20:30,0.770,1.128,0.772,1.403,1.045,0.441,0.771,0.727,��,9.5,��
2019/05/19,20:40,0.771,1.125,0.772,1.405,1.044,0.441,0.772,0.727,��,8.5,��
2019/05/19,20:50,0.770,1.125,0.772,1.407,1.045,0.441,0.770,0.727,��,8.8,��
2019/05/19,21:00,0.771,1.127,0.773,1.405,1.046,0.440,0.770,0.728,��,8.2,��
2019/05/19,21:10,0.771,1.126,0.773,1.403,1.046,0.441,0.770,0.729,��,8.1,��
2019/05/19,21:20,0.771,1.126,0.772,1.404,1.044,0.440,0.770,0.727,��,7.1,��
2019/05/19,21:30,0.772,1.126,0.771,1.400,1.048,0.441,0.770,0.727,��,8.4,��
2019/05/19,21:40,0.771,1.125,0.773,1.404,1.043,0.441,0.769,0.727,��,8.4,��
2019/05/19,21:50,0.769,1.126,0.770,1.402,1.046,0.439,0.772,0.729,��,7.7,��
2019/05/19,22:00,0.772,1.126,0.772,1.402,1.045,0.441,0.770,0.727,��,7.8,��
2019/05/19,22:10,0.770,1.125,0.773,1.403,1.047,0.440,0.770,0.729,��,7.9,��
2019/05/19,22:20,0.769,1.125,0.769,1.405,1.045,0.441,0.770,0.728,��,7.6,��
2019/05/19,22:30,0.772,1.124,0.771,1.404,1.047,0.441,0.771,0.726,��,8.1,��
2019/05/19,22:40,0.773,1.128,0.771,1.404,1.047,0.441,0.770,0.727,��,8.2,��
2019/05/19,22:50,0.772,1.125,0.771,1.403,1.046,0.441,0.772,0.728,��,9.0,��
2019/05/19,23:00,0.770,1.126,0.772,1.404,1.045,0.440,0.771,0.728,��,9.4,��
2019/05/19,23:10,0.771,1.124,0.771,1.403,1.048,0.439,0.772,0.726,��,9.0,��
2019/05/19,23:20,0.773,1.125,0.772,1.404,1.047,0.441,0.772,0.727,��,8.6,��
2019/05/19,23:30,0.771,1.125,0.772,1.403,1.045,0.442,0.771,0.726,��,9.1,��
2019/05/19,23:40,0.770,1.127,0.774,1.406,1.047,0.441,0.770,0.727,��,10.2,��
2019/05/19,23:50,0.771,1.125,0.773,1.406,1.044,0.441,0.771,0.729,��,8.4,��
